P/2007 R3 ( Gibbs )

Japanese version
Home page
Updated on December 30, 2007

---------------------------------------------------------------------

* Profile

Discovery Date September 14, 2007
Magnitude 18.9 mag
Discoverer A. R. Gibbs (Mt. Lemmon Survey)

* Orbital Elements

T 2007 July 6.3442 TT                                   MPC
q   2.500005             (2000.0)            P               Q
n   0.1112184      Peri.  312.1101      +0.9512308      +0.3066843
a   4.282376       Node    30.0749      -0.2598306      +0.8546259
e   0.416211       Incl.    3.8027      -0.1662768      +0.4189980
P   8.86
From 106 observations 2007 Sept. 14-Nov. 5.

* Magnitudes Graph

        m1 = 13.5 + 5 log d + 10.0 log r

---------------------------------------------------------------------

The orbital elements are published on M.P.E.C. 2007-V52.
The magnitudes graphs are made with Comet for Windows.

---------------------------------------------------------------------

Copyright(C) Seiichi Yoshida (comet@aerith.net). All rights reserved.